Date,TemperatureHighF,TemperatureAvgF,TemperatureLowF,DewpointHighF,DewpointAvgF,DewpointLowF,HumidityHigh,HumidityAvg,HumidityLow,PressureMaxIn,PressureMinIn,WindSpeedMaxMPH,WindSpeedAvgMPH,GustSpeedMaxMPH,PrecipitationSumIn
2013-3-19,75,75,75,67,67,67,75,75,75,29.97,29.97,0,-999,0,0.00
2013-3-21,73,73,73,41,41,40,32,32,30,29.85,29.85,1,1,6,0.00
2013-3-22,78,67,57,66,58,47,89,73,56,29.99,29.88,4,2,10,0.00
2013-3-23,88,80,66,75,71,65,98,76,56,29.91,29.78,4,1,18,0.00
2013-3-24,84,78,74,74,72,71,91,83,71,29.74,29.62,12,4,26,0.00
2013-3-26,48,48,48,32,32,31,54,53,52,30.13,30.10,3,3,13,0.01
2013-4-15,90,86,80,73,70,67,65,59,56,29.99,29.96,0,0,6,0.00
2013-4-16,90,85,76,74,73,71,87,67,55,30.11,30.06,4,1,13,0.00
2013-4-20,75,75,75,68,68,68,79,79,79,30.02,30.02,0,-999,0,0.00
2013-4-24,88,83,77,66,62,58,67,51,41,30.08,30.04,2,0,0,0.00
2013-4-30,91,80,66,73,69,64,94,72,45,29.98,29.88,10,1,17,0.02
2013-5-1,78,72,67,73,69,65,96,90,83,30.00,29.92,7,1,18,0.33
2013-5-2,70,70,70,68,68,68,95,95,95,29.91,29.90,3,1,4,0.00
2013-5-3,79,76,71,72,71,69,94,84,78,29.78,29.77,0,0,0,0.00
2013-5-4,84,83,83,69,68,68,60,60,59,29.68,29.67,9,8,15,0.00
2013-5-5,73,73,73,51,51,51,46,46,46,29.88,29.88,3,3,0,0.00
2013-5-7,76,76,76,60,60,60,57,57,57,30.02,30.02,1,1,0,0.00
2013-5-9,88,88,88,61,61,61,41,41,41,30.06,30.05,0,0,0,0.00
2013-5-22,85,81,80,75,74,73,84,80,67,29.91,29.90,4,3,0,0.00
2013-5-23,89,88,87,75,74,74,65,64,63,29.98,29.97,1,1,0,0.00
2013-5-27,89,89,89,65,65,65,46,46,46,30.11,30.11,2,2,0,0.00
2013-5-29,81,78,76,76,73,72,88,87,85,30.10,30.09,4,3,0,0.00
2013-5-31,88,84,80,77,74,73,84,71,65,30.07,30.01,8,4,0,0.00
2013-6-1,84,84,83,76,76,75,78,76,76,30.01,30.01,4,4,0,0.00
2013-6-4,88,80,76,74,73,72,90,80,64,29.99,29.96,1,0,0,0.00
2013-6-5,75,75,75,73,73,73,95,95,95,29.97,29.97,0,0,0,0.00
2013-6-7,89,89,89,77,76,76,68,66,66,29.86,29.86,2,0,9,0.00
2013-6-11,88,88,88,76,76,76,68,68,68,30.03,30.03,0,0,1,0.00
2013-6-19,93,86,83,77,74,71,72,67,60,30.01,29.96,2,0,0,0.00
2013-6-20,94,85,76,76,75,72,88,71,56,30.06,30.04,0,0,3,0.01
2013-6-22,77,77,77,74,74,74,89,89,89,30.09,30.09,0,0,0,0.00
2013-6-23,77,77,77,74,74,74,89,89,89,30.09,30.09,0,0,0,0.00
2013-6-25,90,89,88,76,75,75,66,65,63,30.12,30.11,0,0,0,0.00
2013-6-26,95,84,73,75,73,71,94,73,51,30.06,29.99,4,1,0,0.00
2013-6-27,95,86,74,76,74,73,97,70,49,30.03,29.98,0,0,0,0.00
2013-7-1,74,73,72,73,72,70,96,96,95,29.95,29.94,1,1,9,0.06
2013-7-2,81,78,75,76,75,73,94,89,84,30.05,30.03,3,1,0,0.00
2013-7-3,81,81,81,74,74,74,79,79,79,30.04,30.04,4,4,0,0.00
2013-7-4,86,79,73,78,75,71,93,87,78,30.11,30.06,2,1,0,0.00
2013-7-5,92,79,75,78,75,73,92,86,63,30.11,30.04,4,1,0,0.00
2013-7-6,94,81,73,77,74,71,93,81,50,30.10,30.01,5,1,11,0.11
2013-7-7,94,84,75,78,75,72,94,76,54,30.11,30.01,7,2,16,0.12
2013-7-8,95,81,75,78,73,-100,95,81,49,30.14,30.05,4,1,9,0.02
2013-7-9,94,84,75,77,74,72,91,75,51,30.14,30.04,3,0,0,0.00
2013-7-10,94,83,75,76,74,72,92,76,50,30.07,30.00,1,0,0,0.00
2013-7-11,95,86,77,77,75,74,89,73,54,29.99,29.91,6,1,0,0.00
2013-7-12,90,81,74,78,75,71,92,81,63,29.94,29.87,1,0,0,0.00
2013-7-13,81,75,72,74,72,70,95,91,77,29.98,29.89,0,0,4,0.00
2013-7-14,88,75,72,78,73,70,96,92,72,30.07,29.96,2,0,7,0.28
2013-7-15,85,76,71,77,73,70,96,90,73,30.09,29.99,3,0,1,0.01
2013-7-16,90,87,83,77,76,74,79,69,59,30.12,30.10,6,4,0,0.00
2013-7-17,90,84,75,77,75,72,92,76,63,30.13,30.07,7,3,6,0.00
2013-7-18,92,78,73,77,73,71,94,85,59,30.10,30.03,2,0,0,0.00
2013-7-19,88,74,72,76,71,69,94,91,68,30.10,30.01,6,0,19,0.90
2013-7-20,96,80,72,80,73,-100,93,82,59,30.10,30.01,3,0,0,0.00
2013-7-21,97,82,74,80,75,71,91,81,54,30.10,30.00,3,0,0,0.00
2013-7-22,85,76,74,75,72,71,91,89,71,30.10,30.04,5,0,1,0.04
2013-7-23,93,79,74,78,74,72,93,85,58,30.08,29.94,5,0,0,0.00
2013-7-24,91,82,75,80,76,73,92,81,67,29.99,29.86,6,1,0,0.00
2013-7-25,89,81,73,80,75,71,94,84,70,29.97,29.87,4,1,7,0.07
2013-7-26,95,83,76,79,76,74,93,79,57,29.98,29.92,5,0,11,0.00
2013-7-27,96,84,76,79,76,73,93,78,55,29.98,29.87,1,0,0,0.00
2013-7-28,96,81,74,79,75,72,95,82,50,30.05,29.93,1,0,0,0.00
2013-7-29,93,82,75,78,75,72,92,79,58,30.11,30.01,0,0,0,0.00
2013-7-30,98,88,78,78,76,72,95,69,44,30.15,30.06,3,1,0,0.00
2013-7-31,88,80,78,79,75,72,94,85,75,30.12,29.99,3,0,0,0.00
2013-8-1,99,89,77,78,75,73,95,66,44,30.01,29.92,1,0,0,0.00
2013-8-2,94,82,76,77,75,74,93,80,57,30.01,29.93,5,0,0,0.00
2013-8-3,94,80,75,77,74,73,94,84,59,30.06,30.00,5,1,0,0.00
2013-8-4,90,85,79,81,78,77,96,81,70,30.06,29.97,3,1,0,0.00
2013-8-5,94,90,79,81,79,76,95,73,63,29.99,29.93,6,1,0,0.00
2013-8-6,96,91,81,80,79,77,89,70,61,29.94,29.87,1,0,0,0.00
2013-8-7,97,88,78,79,76,73,87,70,55,29.95,29.88,7,1,0,0.00
2013-8-8,98,83,75,78,76,73,95,81,50,29.98,29.92,1,0,0,0.00
2013-8-21,95,82,74,79,75,72,95,83,57,30.06,30.00,6,1,23,0.41
2013-8-22,92,78,75,81,75,73,95,91,67,30.06,29.97,3,0,0,0.00
2013-8-23,92,92,92,78,78,78,64,64,64,29.97,29.97,1,1,0,0.00
2013-8-24,94,91,79,79,77,75,87,64,57,30.04,30.00,7,1,15,0.00
2013-8-25,91,83,78,79,77,74,91,82,66,30.13,30.05,3,1,0,0.00
2013-8-26,89,82,76,78,76,73,92,82,69,30.09,29.98,3,1,0,0.00
2013-8-27,92,82,74,75,73,71,94,78,51,30.04,29.96,3,1,0,0.00
2013-8-28,93,86,77,73,71,68,86,64,45,30.01,29.96,4,1,0,0.00
2013-8-29,95,87,76,77,74,72,87,67,50,30.01,29.90,0,0,0,0.00
2013-8-30,92,89,83,79,77,77,83,69,61,29.97,29.94,0,0,0,0.00
2013-8-31,96,92,84,77,75,73,80,59,49,29.96,29.87,3,1,0,0.00
2013-9-1,95,88,80,80,76,74,82,68,55,29.96,29.88,4,0,0,0.00
2013-9-3,88,84,77,79,78,76,96,82,74,29.99,29.96,0,0,0,0.00
2013-9-6,99,84,74,80,75,70,95,77,51,30.03,29.91,9,0,19,0.08
2013-9-7,93,79,73,78,74,72,96,85,57,30.00,29.89,6,0,0,0.09
2013-9-8,91,78,75,76,70,-100,94,80,57,29.94,29.89,1,0,0,0.00
2013-9-9,93,88,80,77,76,75,87,68,58,29.97,29.95,2,1,0,0.00
2013-9-10,92,87,81,74,73,70,80,65,49,30.03,29.99,4,2,0,0.00
2013-9-11,91,91,91,76,76,76,62,62,62,30.00,30.00,3,3,0,0.00
2013-9-12,91,82,79,76,75,73,89,80,62,29.93,29.89,1,0,13,0.00
2013-9-13,84,84,84,76,76,76,76,76,76,29.88,29.88,0,0,0,0.00
2013-9-15,75,74,73,73,72,71,95,94,92,30.06,29.97,0,0,3,0.64
2013-9-16,94,80,73,79,74,71,96,86,58,30.02,29.96,4,0,7,2.41
2013-9-17,83,76,73,76,74,72,96,91,77,30.01,29.93,3,0,5,0.02
2013-9-18,76,75,75,74,73,73,94,93,92,29.98,29.96,0,0,0,0.00
2013-9-19,90,84,76,77,75,73,91,75,61,30.02,29.94,5,2,0,0.00
2013-9-20,76,74,73,73,72,71,93,92,91,30.00,29.99,0,0,0,0.00
2013-9-21,95,86,76,73,71,69,85,62,46,29.83,29.75,0,0,3,0.00
2013-9-22,86,76,74,79,70,-100,96,89,74,29.84,29.74,7,0,7,0.70
2013-9-23,86,77,73,79,75,72,97,94,78,29.94,29.83,1,0,9,0.50
2013-9-24,83,76,74,77,74,72,97,91,80,29.94,29.83,3,0,0,0.06
2013-9-25,82,76,72,74,72,70,94,88,74,29.87,29.77,4,1,0,0.00
2013-9-26,91,82,73,79,73,66,95,76,48,29.85,29.75,3,0,0,0.00
2013-9-27,83,76,71,75,72,69,94,85,74,29.94,29.83,7,1,0,0.00
2013-9-28,83,76,71,75,72,69,95,88,74,29.97,29.89,5,0,5,0.03
2013-9-29,90,79,72,74,68,-100,92,74,53,29.97,29.87,1,0,0,0.00
2013-9-30,91,79,70,75,71,68,95,78,51,29.99,29.89,1,0,0,0.00
2013-10-1,81,78,75,74,72,71,87,84,77,30.04,29.98,1,0,0,0.00
2013-10-2,88,78,71,75,72,69,95,84,62,30.03,29.98,2,0,0,0.00
2013-10-3,92,85,76,73,72,70,91,66,49,30.06,29.96,2,0,0,0.00
2013-10-4,91,82,74,75,73,71,92,76,55,30.06,29.98,1,0,0,0.00